Location: Bear Trap Landing
(45.2437°N, 67.7928°W)
Time: 17:55:23
(UTC+00:00)

Envisat - Pass Details

Date: 08 March 2021
Orbit: 764 x 766 km, 98.1° (Epoch: 21 April)

Event Time Altitude Azimuth Distance (km) Brightness Sun altitude
Rises 08:34:44 0° 36° (NE) 3,242 7.1 -25.4°
Reaches altitude 10° 08:39:58 10° 82° (E) 2,305 6.5 -24.5°
Maximum altitude 08:40:19 10° 86° (E) 2,301 6.5 -24.4°
Drops below altitude 10° 08:40:39 10° 90° (E) 2,304 6.4 -24.4°
Sets 08:45:51 0° 135° (SE) 3,220 6.6 -23.5°
